Regional Weather Roundup
Issued by NWS

Home | Current Version | Previous Version | Text Only | Print | Product List | Glossary Off
Versions: 1 2 3 4 5 6 7 8 9 10 11 12 13 14 15 16 17 18 19 20 21 22 23 24 25 26 27 28 29 30 31 32 33 34 35 36 37 38 39 40 41 42 43 44 45 46 47 48 49 50

000
ASUS44 KMEG 281210
RWRTN
TENNESSEE HOURLY STATE WEATHER ROUNDUP
NATIONAL WEATHER SERVICE MEMPHIS TN
700 AM CDT SAT MAY 28 2016

TNZ002-004-019-021-049-052-054-088>092-281300-
WEST TENNESSEE

CITY           SKY/WX    TMP DP  RH WIND       PRES   REMARKS
MEMPHIS INTL   PTSUNNY   71  66  84 S6        29.97R
NWS MEMPHIS      N/A     69 N/A N/A MISG        N/A
JACKSON        MOSUNNY   70  65  84 S5        30.00R
DYERSBURG      CLOUDY    70  64  83 SE6       29.97S
UNION CITY     MOSUNNY   72  66  83 SE7       29.98R
PARIS          MOSUNNY   66  63  88 SE6       30.02R
LEXINGTON      CLOUDY    70  64  83 SE3       30.02R
$$

TNZ008-025-027-028-033-062-065-066-281300-
NORTH MIDDLE TENNESSEE

CITY           SKY/WX    TMP DP  RH WIND       PRES   REMARKS
NASHVILLE      CLOUDY    73  63  70 S5        30.06R
CLARKSVILLE    CLOUDY    71  66  84 S5        30.03R
SMYRNA         CLOUDY    73  65  76 S3        30.07R
COOKEVILLE     SUNNY     73  63  68 S5        30.09R
CROSSVILLE     SUNNY     68  60  75 S6        30.14S
$$

TNZ061-075-076-078-094-096-097-281300-
SOUTH MIDDLE TENNESSEE

CITY           SKY/WX    TMP DP  RH WIND       PRES   REMARKS
FAYETTEVILLE   SUNNY     73  61  64 S9        30.08R
TULLAHOMA      SUNNY     70  66  88 SE3       30.09R
WINCHESTER     SUNNY     72  61  68 S6        30.09R
MCMINNVILLE    SUNNY     73  63  68 CALM      30.09R
COLUMBIA       SUNNY     73  73 100 SE5       30.04R
SHELBYVILLE    SUNNY     72  64  78 SE5       30.08R
$$

TNZ017-018-042-046-047-281300-
NORTHEAST TENNESSEE

CITY           SKY/WX    TMP DP  RH WIND       PRES   REMARKS
TRI CITIES     SUNNY     63  62  97 CALM      30.17R FOG
$$

TNZ012-013-036-069-073-074-281300-
CENTRAL EAST TENNESSEE

CITY           SKY/WX    TMP DP  RH WIND       PRES   REMARKS
KNOXVILLE      FOG       66  65  96 CALM      30.12R VSB<1/4
OAK RIDGE      FOG       66  65  96 CALM      30.14S VSB 1/2
GATLINBURG     MOSUNNY   63  61  94 VRB3      30.13R
$$

TNZ083-085-099-281300-
SOUTHEAST TENNESSEE

CITY           SKY/WX    TMP DP  RH WIND       PRES   REMARKS
CHATTANOOGA    PTSUNNY   71  61  70 SE8       30.11R
$$

SKY/WX REPORTED AS FAIR MEANS FEW OR NO CLOUDS BELOW
12 THOUSAND FEET.





USA.gov is the U.S. government's official web portal to all federal, state and local government web resources and services.